{"data":{"norad_id":68147,"epoch":"2026-05-25T00:31:04.998432Z","epoch_age_seconds":83238,"freshness":"FRESH","line1":"1 68147U 26049F   26145.02158563  .00022593  00000+0  69990-3 0  9991","line2":"2 68147  97.2836 166.6559 0001750  91.9965 268.1478 15.33451452 11341","mean_motion":15.33451452,"eccentricity":0.000175,"inclination_deg":97.2836,"raan_deg":166.6559,"arg_perigee_deg":91.9965,"mean_anomaly_deg":268.1478,"bstar":0.0006999,"rev_number":1134,"period_min":93.905809546294,"perigee_km":464.32633726167,"apogee_km":466.72161860395,"semimajor_km":6843.6609779328,"source":"CELESTRAK","updated_at":"2026-05-25T13:38:21.847355Z"}}